This is the latest recevied weather packets stored in our database for station/object DM2KB-13. If no packets are shown the sender has not sent any weather packets the latest 1 day(s).
| Time | Temp. | Humidity | Pressure | Rain* | Wind** | Luminosity | Snow |
|---|---|---|---|---|---|---|---|
| 1778050267 | 9.44° C | 99% | 1005.2 hPa | 1.78 mm | - | 79 W/m² | - |
| 1778049666 | 9.44° C | 99% | 1005.2 hPa | 1.52 mm | - | 62 W/m² | - |
| 1778049366 | 9.44° C | 99% | 1005.2 hPa | 1.78 mm | - | 56 W/m² | - |
| 1778049066 | 9.44° C | 99% | 1005.2 hPa | 2.03 mm | - | 53 W/m² | - |
| 1778048465 | 9.44° C | 99% | 1005.1 hPa | 2.03 mm | - | 49 W/m² | - |
| 1778048165 | 9.44° C | 99% | 1005.1 hPa | 2.29 mm | - | 49 W/m² | - |
| 1778046964 | 8.89° C | 99% | 1004.9 hPa | 2.54 mm | - | 44 W/m² | - |
| 1778046063 | 9.44° C | 99% | 1005 hPa | 2.54 mm | - | 35 W/m² | - |
| 1778045763 | 9.44° C | 99% | 1004.9 hPa | 2.54 mm | - | 30 W/m² | - |
| 1778045162 | 9.44° C | 99% | 1004.9 hPa | 2.29 mm | - | 26 W/m² | - |
| 1778044862 | 9.44° C | 99% | 1004.9 hPa | 2.03 mm | - | 21 W/m² | - |
| 1778044561 | 9.44° C | 98% | 1004.9 hPa | 1.78 mm | - | 19 W/m² | - |
| 1778044261 | 9.44° C | 98% | 1004.9 hPa | 1.78 mm | - | 19 W/m² | - |
| 1778043961 | 9.44° C | 98% | 1004.9 hPa | 1.78 mm | - | 16 W/m² | - |
| 1778043661 | 9.44° C | 98% | 1004.9 hPa | 1.78 mm | - | 16 W/m² | - |
| 1778043060 | 9.44° C | 98% | 1004.9 hPa | 1.27 mm | - | 12 W/m² | - |
| 1778042760 | 9.44° C | 98% | 1004.8 hPa | 1.27 mm | - | 11 W/m² | - |
| 1778042159 | 9.44° C | 98% | 1004.8 hPa | 1.27 mm | - | 7 W/m² | - |
| 1778041859 | 9.44° C | 98% | 1004.8 hPa | 1.27 mm | - | 5 W/m² | - |
| 1778041559 | 9.44° C | 98% | 1004.8 hPa | 1.02 mm | - | 0 W/m² | - |
| 1778041258 | 9.44° C | 98% | 1004.8 hPa | 1.02 mm | - | 0 W/m² | - |
| 1778040958 | 9.44° C | 98% | 1004.7 hPa | 1.27 mm | - | 0 W/m² | - |
| 1778040658 | 9.44° C | 98% | 1004.8 hPa | 1.02 mm | - | 0 W/m² | - |
| 1778040057 | 9.44° C | 98% | 1004.8 hPa | 1.02 mm | - | 0 W/m² | - |
| 1778039757 | 9.44° C | 98% | 1004.8 hPa | 1.27 mm | - | 0 W/m² | - |
* Rain latest hour (hover to see other rain measurements)
** Current wind speed in m/s (hover to see current wind gust speed)